sat.trackr.live / text

‹ back to catalog

STARLINK-34608

NORAD 64810 · 2025-150W

PAYLOAD ACTIVE UNKNOWN

§ Identity

Operator
Country
US
Launch date
2025-07-16
Launch site
AFWTR
Launch vehicle
Mass (kg)
RCS (m²)

Purposes: comms

External: N2YO · Heavens-Above · Gunter

§ Orbital elements

Epoch: 2026-05-24T19:44:35.848896Z

Period
96.11 min
Inclination
70.0004°
Eccentricity
0.0002809
Mean motion
14.98343918 rev/d
Perigee alt
570.1 km
Apogee alt
574.0 km
Semi-major
6,950.1 km
B*
3.3964e-4
RAAN
302.3829°
Arg perigee
268.7681°
Mean anomaly
91.3156°
Rev number
4,792

§ Raw data

STARLINK-346081 64810U 25150W   26144.82263714  .00003963  00000+0  33964-3 0  99902 64810  70.0004 302.3829 0002809 268.7681  91.3156 14.98343918 47923

JSON: /api/v1/satellites/64810 · /tle

For live sub-satellite position, see the globe view (requires WebGL).

§ Visibility from observer

Set your observer location to see the next 7 days of passes ≥ 10°. The values pass through the URL so the page stays shareable.

No JS? Fill the form by hand. The geolocation button needs JavaScript.